This is the latest recevied weather packets stored in our database for station/object K0NV. If no packets are shown the sender has not sent any weather packets the latest 10 day(s).
| Time | Temp. | Humidity | Pressure | Rain* | Wind** | Luminosity | Snow |
|---|---|---|---|---|---|---|---|
| 1777489067 | 17.22° C | 62% | 1018.7 hPa | 0 mm | - | 679 W/m² | - |
| 1777488764 | 17.22° C | 63% | 1019.1 hPa | 0 mm | - | 727 W/m² | - |
| 1777488462 | 17.22° C | 64% | 1018.7 hPa | 0 mm | - | 769 W/m² | - |
| 1777488159 | 16.67° C | 65% | 1019.3 hPa | 0 mm | - | 809 W/m² | - |
| 1777487858 | 16.67° C | 63% | 1019.2 hPa | 0 mm | - | 755 W/m² | - |
| 1777487556 | 17.78° C | 63% | 1019 hPa | 0 mm | - | 772 W/m² | - |
| 1777487252 | 17.22° C | 64% | 1019 hPa | 0 mm | - | 771 W/m² | - |
| 1777486949 | 16.67° C | 63% | 1019.1 hPa | 0 mm | - | 770 W/m² | - |
| 1777486645 | 16.67° C | 64% | 1019.3 hPa | 0 mm | - | 753 W/m² | - |
| 1777486343 | 16.67° C | 65% | 1019.5 hPa | 0 mm | - | 761 W/m² | - |
| 1777486040 | 16.67° C | 64% | 1019.6 hPa | 0 mm | - | 768 W/m² | - |
| 1777485737 | 16.11° C | 63% | 1019.7 hPa | 0 mm | - | 751 W/m² | - |
| 1777485432 | 15.56° C | 67% | 1019.7 hPa | 0 mm | - | 769 W/m² | - |
| 1777485128 | 16.11° C | 67% | 1019.6 hPa | 0 mm | - | 791 W/m² | - |
| 1777484825 | 15.56° C | 67% | 1019.7 hPa | 0 mm | - | 789 W/m² | - |
| 1777484522 | 16.11° C | 66% | 1019.9 hPa | 0 mm | - | 758 W/m² | - |
| 1777484219 | 15.56° C | 68% | 1019.9 hPa | 0 mm | - | 435 W/m² | - |
| 1777483915 | 16.11° C | 66% | 1019.8 hPa | 0 mm | - | 758 W/m² | - |
| 1777483611 | 15.56° C | 70% | 1020 hPa | 0 mm | - | 783 W/m² | - |
| 1777483306 | 15° C | 71% | 1020 hPa | 0 mm | - | 674 W/m² | - |
| 1777483003 | 15° C | 69% | 1019.9 hPa | 0 mm | - | 379 W/m² | - |
| 1777482699 | 15° C | 68% | 1020 hPa | 0 mm | - | 627 W/m² | - |
| 1777482396 | 15.56° C | 68% | 1019.9 hPa | 0 mm | - | 629 W/m² | - |
| 1777482093 | 15.56° C | 69% | 1020.1 hPa | 0 mm | - | 780 W/m² | - |
| 1777481792 | 15° C | 69% | 1020.1 hPa | 0 mm | - | 573 W/m² | - |
* Rain latest hour (hover to see other rain measurements)
** Current wind speed in m/s (hover to see current wind gust speed)